joomla templates top joomla templates template joomla

King Air Abend

Wetterbeurteilung mit Hilfe Webcam und ATIS

 

Webcam 1Webcam 2

(Zum vergrößern auf das Bild klicken)

Wetteranzeige

Aktuelles Platzwetter Stand 20.11.2019 14:09Z

AvgMin / Max
Windrichtung70 Deg50 / 110 Deg
Windgeschwindigkeit4 kt2 / 7 kt
Sichtweite>10000 m
Temperatur3 °C
Taupunkt0 °C
Feuchte83 %
QNH1015.1 hPa
QFE961.6 hPa
WolkenOVC010

Aerodrome Terminal Information Service (ATIS) Coburg

METAR
EDQC 201350Z AUTO 08004KT 050V110 9999 BKN010 OVC016 03/00 Q1015=

Wetterverlauf

Notam

C3571/19 - AD PPR. 22 OCT 00:00 2019 UNTIL 09 DEC 23:59 2019. CREATED: 11 OCT 08:29 2019

C0503/18 - COBURG INFO CHANGED TO 128.680 (8.33 KHZ). 28 FEB 12:22 2018 UNTIL PERM. CREATED:
28 FEB 12:22 2018

Windvorhersage

Verkehrslandeplatz Coburg Brandensteinsebene
Tower
Zur Brandensteinsebene
96450 Coburg

 

Telefon +49 (0) 95 61 / 9 20 98
Telefax +49 (0) 95 61 / 9 20 06
EMail tower@vlp-coburg.de